Location: Newark
(41.5333°N, 14.5500°E)
Time: 20:03:35
(UTC+00:00)

Envisat - Pass Details

Date: 31 January 2020
Orbit: 764 x 766 km, 98.1° (Epoch: 22 February)

Event Time Altitude Azimuth Distance (km) Brightness Sun altitude
Rises 17:03:26 0° 173° (S) 3,218 6.3 -9.3°
Reaches altitude 10° 17:05:45 10° 177° (S) 2,296 5.6 -9.7°
Maximum altitude 17:10:46 65° 259° (WSW) 843 3.5 -10.6°
Drops below altitude 10° 17:15:50 10° 341° (NNW) 2,311 5.6 -11.5°
Sets 17:18:11 0° 344° (NNW) 3,241 6.3 -12.0°
